Location: Badger Butte
(44.9311°N, 118.3053°W)
Time: 07:25:12
(UTC+00:00)

Daily predictions for brighter satellites

Satellite Brightness Start Highest point End
(mag) Time Altitude Azimuth Time Altitude Azimuth Time Altitude Azimuth
CZ-4C R/B 3.2 12:13:40 52° N 12:15:03 60° NE 12:22:52 10° SE
ATLAS CENTAUR R/B 3.9 12:22:08 17° NE 12:22:08 17° NE 12:24:26 10° E
Cosmos 1140 Rocket 4.3 12:28:45 41° SE 12:29:42 47° ESE 12:34:38 10° NNE
Cosmos 1844 Rocket 3.0 12:31:58 60° SE 12:32:26 62° ESE 12:37:57 10° NNE
Cosmos 1954 Rocket 4.4 12:36:04 54° SE 12:36:39 58° ESE 12:41:46 10° NNE
Cosmos 2181 Rocket 4.3 12:36:51 10° N 12:43:07 65° E 12:49:16 10° SSE
USA 234 3.8 12:37:08 10° NE 12:43:10 41° NNW 12:43:14 41° NNW
DELTA 2 R/B (1) 4.2 12:44:34 45° S 12:44:34 45° S 12:49:30 10° ESE
Cosmos 1844 4.1 12:43:18 24° S 12:46:43 62° ESE 12:52:21 10° NNE
COSMOS 2455 3.4 12:48:32 44° NNW 12:48:32 44° NNW 12:53:05 10° NNE
Cosmos 1076 Rocket 4.2 12:47:18 53° E 12:47:18 53° E 12:51:26 10° SSE
Cosmos 2082 Rocket 4.1 12:50:48 10° N 12:55:21 25° NE 12:59:54 10° ESE
Cosmos 371 Rocket 3.9 12:56:01 32° N 12:57:59 54° ENE 13:02:46 10° SE
ATLAS 3B R/B 4.5 13:00:07 15° NNW 13:01:16 16° N 13:05:12 10° NNE
IRS-1C Rocket 4.4 12:56:55 10° N 13:01:03 51° NNW 13:01:03 51° NNW
COSMOS 2406 3.0 13:02:41 64° WNW 13:03:23 72° WSW 13:09:00 10° SSE
SL-08 ROCKET BODY 4.5 12:58:09 10° S 13:03:57 74° E 13:09:52 10° NNE
CENTAUR R/B 3.7 13:04:30 28° NNW 13:04:30 28° NNW 13:10:39 10° NNE
Meteor 1-21 Rocket 4.2 13:05:06 59° WNW 13:05:34 61° W 13:11:11 10° S
Cosmos 1626 3.8 13:03:07 16° NNE 13:05:35 33° ENE 13:08:59 10° SE
Abrixas rocket 3.7 13:07:51 34° ENE 13:07:51 34° ENE 13:09:58 10° E
SL-14 R/B 4.0 13:09:10 43° SSE 13:09:10 43° SSE 13:11:50 10° S
Okean 3 Rocket 3.4 13:08:38 82° NW 13:08:49 86° W 13:13:13 10° S
Cosmos 1766 Rocket 4.3 13:05:10 13° N 13:08:56 51° ENE 13:13:14 10° SSE
Okean-O 2.7 13:10:30 10° NNE 13:14:57 78° ESE 13:19:23 10° S
CZ-3B R/B 3.8 13:15:42 45° N 13:16:11 50° NE 13:23:32 10° ESE
COSMO-SKYMED 1 2.4 13:12:25 10° S 13:16:44 71° WSW 13:16:59 69° WNW
MSX 4.4 13:16:40 10° NNE 13:22:21 59° E 13:28:00 10° S
Radarsat Rocket 4.2 13:18:41 10° NNE 13:25:33 79° ESE 13:31:38 10° SSW
CZ-2C R/B 2.4 13:22:38 10° NNE 13:27:15 72° ESE 13:31:54 10° S
Cosmos 614 Rocket 3.9 13:25:35 32° SW 13:27:49 58° WNW 13:32:51 10° NNE
Cosmos 1833 Rocket 3.8 13:23:02 10° NNW 13:28:23 42° ENE 13:33:43 10° SE
EO 1 Del DPAF 3.0 13:24:36 10° S 13:28:24 77° WSW 13:29:23 48° NNW
Cosmos 1741 Rocket 4.1 13:23:59 10° SSW 13:29:14 75° ESE 13:34:29 10° NNE
Cosmos 1315 Rocket 2.7 13:29:24 60° WNW 13:29:40 62° W 13:33:36 10° S
CZ-4B R/B 4.3 13:25:42 10° N 13:28:30 25° NNW 13:28:30 25° NNW
Cosmos 1709 Rocket 4.2 13:28:16 10° SSW 13:34:19 47° WNW 13:40:28 10° N
Shenzhou-11 Module 2.7 13:35:46 43° S 13:36:00 44° SSE 13:38:54 10° E
Cosmos 2263 Rocket 4.1 13:38:26 12° NNW 13:38:26 12° NNW 13:39:43 10° N
Lacrosse 5 3.7 13:40:53 15° SW 13:40:53 15° SW 13:42:50 10° SSW
Landsat 4 4.5 13:37:04 10° SSW 13:39:52 34° SW 13:39:52 34° SW
Meteor 2-8 Rocket 4.3 13:35:58 10° NNW 13:42:08 74° W 13:48:13 10° S
Cosmos 2184 Rocket 4.0 13:38:23 10° S 13:44:38 89° E 13:51:00 10° N
Feng Yun 1-1 Rocket 4.2 13:41:45 10° N 13:47:03 54° WNW 13:52:15 10° SW
IDEFIX/ARIANE 42P 2.7 13:44:36 10° N 13:49:44 53° WNW 13:54:51 10° SSW
Cosmos 332 Rocket 4.1 13:49:17 24° NW 13:51:45 44° WSW 13:56:21 10° S
Tiangong 2 2.8 13:52:51 15° SW 13:54:59 29° SSE 13:57:49 10° E
SJ-12 3.8 13:52:27 10° N 13:56:35 81° WNW 14:00:42 10° SSW
Cosmos 304 Rocket 4.0 13:53:38 10° NNW 13:58:26 70° ENE 14:03:12 10° SSE
Cosmos-2242 3.1 13:55:10 10° SSW 13:59:24 54° WNW 14:03:38 10° N
Cosmos 2278 Rocket 2.1 13:53:58 10° SSW 13:59:38 76° WNW 14:05:20 10° NNE
Cosmos 1328 4.3 13:57:31 20° NW 13:59:44 37° W 14:03:25 10° SSW
ATLAS CENTAUR R/B 1.3 13:58:25 23° NW 14:00:53 69° WSW 14:05:10 10° SSE
Cosmos 1408 Rocket 3.7 13:58:04 10° NNW 14:02:17 49° W 14:06:31 10° SSW
Meteor 2-19 Rocket 4.3 13:56:56 10° SSW 14:02:58 70° W 14:09:02 10° N
Nadezhda 3 Rocket 4.3 13:56:37 10° N 14:03:00 75° E 14:09:18 10° SSE
CZ-4C R/B 3.5 13:58:53 19° WNW 14:03:35 39° WSW 14:10:50 10° S
Cosmos 2208 Rocket 4.2 14:01:50 10° NNW 14:07:09 54° WSW 14:12:27 10° S
BREEZE-M DEB (TANK) 3.7 14:05:59 22° WNW 14:08:19 71° NNE 14:18:35 10° ESE
CSL-04 Rocket 4.2 14:05:03 10° NNE 14:10:24 63° ESE 14:15:39 10° S
Thor Agena Rocket 3.5 14:05:25 10° SSE 14:10:39 82° WSW 14:15:58 10° NNW
Cosmos 1140 Rocket 4.4 14:08:53 16° W 14:11:45 25° WNW 14:15:59 10° N
Cosmos 1500 Rocket 3.6 14:10:01 10° N 14:14:28 85° E 14:18:51 10° S
Cosmos 2058 2.8 14:10:40 10° NNW 14:14:53 73° W 14:19:04 10° S
Cosmos 1844 Rocket 3.7 14:13:43 16° W 14:16:47 24° NW 14:21:15 10° N
Cosmos 1850 Rocket 4.4 14:14:21 10° SW 14:19:19 41° WNW 14:24:21 10° N
SL-27 R/B 2.7 14:16:30 11° NNW 14:19:51 51° WSW 14:23:23 10° S
Cosmos 2151 2.9 14:16:22 10° NNW 14:20:40 68° W 14:24:55 10° S
Cosmos 2074 Rocket 4.2 14:15:06 10° SSW 14:21:05 48° WNW 14:27:05 10° N
Cosmos 1908 3.2 14:19:44 10° S 14:23:39 85° W 14:27:37 10° N
USA 234 4.3 14:19:39 10° ENE 14:25:12 31° N 14:30:35 11° WNW
SJ-7 4.4 14:22:10 10° N 14:26:25 68° WNW 14:30:36 10° SSW
Cosmos 1743 Rocket 3.7 14:23:50 10° NNW 14:28:03 52° W 14:32:16 10° S
Cosmos 1703 3.8 14:25:38 10° NNW 14:29:18 36° W 14:32:56 10° SSW
Cosmos 468 Rocket 4.3 14:28:14 10° NNW 14:33:11 47° WSW 14:38:10 10° S
Cosmos 1814 Rocket 4.0 14:28:27 10° NNW 14:33:41 74° WSW 14:38:48 10° SSE
Cosmos 2221 2.8 14:33:27 10° S 14:37:42 72° E 14:41:59 10° NNE
CZ-4 R/B 1.4 14:34:01 10° NNE 14:38:11 89° WNW 14:42:13 10° SSW
Cosmos 2082 Rocket 2.3 14:34:20 10° NNW 14:39:53 61° WSW 14:45:23 10° S
Cosmos 1626 3.7 14:38:13 10° NW 14:40:38 17° W 14:43:02 10° SW
Cosmos 1726 2.2 14:37:52 10° S 14:41:37 86° E 14:45:21 10° N
Cosmos 841 Rocket 3.5 14:36:54 10° NNW 14:42:07 88° WSW 14:47:14 10° SSE
Abrixas rocket 2.9 14:40:18 11° WNW 14:43:17 41° SSW 14:46:21 10° SE
CSL-04 Debris 4.2 14:38:27 10° NNE 14:43:58 76° WNW 14:49:26 10° SSW
Cosmos 1174 4.4 14:42:53 10° NW 14:46:42 35° WSW 14:49:51 10° S
USA 229 DEB 3.7 14:40:49 10° SW 14:47:32 65° NW 14:54:28 10° NE
BREEZE-M DEB (TANK) 2.9 14:44:58 10° WNW 14:47:34 47° N 14:54:16 10° ENE
USA 229 3.7 14:40:55 10° SW 14:47:38 65° NW 14:54:35 10° NE
SeaSat 1 3.7 14:43:18 10° NE 14:48:06 48° ESE 14:52:52 10° S
Cosmos 1484 Rocket 3.4 14:45:04 10° N 14:48:26 32° WNW 14:51:47 10° SW
NOSS 3-1 (A) 4.2 14:44:20 10° SSW 14:49:56 58° ESE 14:56:15 10° NE
Meteor 2-1 Rocket 4.3 14:45:06 10° SSW 14:50:27 52° WNW 14:55:55 10° N
Okean-O 4.4 14:48:52 10° NNW 14:50:49 13° WNW 14:52:46 10° W
SMAP 3.2 14:46:39 10° N 14:51:10 52° WNW 14:55:41 10° SSW
Cosmos 1486 Rocket 4.2 14:46:58 10° SSW 14:52:17 83° ESE 14:57:40 10° NNE
Cosmos 1763 Rocket 3.7 14:48:58 10° NNW 14:53:52 50° WSW 14:58:48 10° S
Cosmos 2341 Rocket 4.0 14:48:10 10° SSW 14:54:21 70° W 15:00:35 10° N
ATLAS 3B R/B 4.3 14:49:52 10° NNW 14:54:49 21° NNE 14:59:38 10° ENE
CENTAUR R/B 4.5 14:53:13 10° NW 14:57:53 18° N 15:02:54 10° NE
